Weather Service Report


611 
ASUS43 KFSD 280310
RWRSD 

WEATHER ROUNDUP FOR SOUTH DAKOTA
NATIONAL WEATHER SERVICE SIOUX FALLS SD
1000 PM CDT FRI MAY 27 2016

NOTE: "FAIR" INDICATES FEW OR NO CLOUDS BELOW 12,000 FEET WITH NO
SIGNIFICANT WEATHER AND/OR OBSTRUCTIONS TO VISIBILITY.


SDZ001>005-009-010-012>017-280400-
NORTHWEST AND NORTH CENTRAL SOUTH DAKOTA
  
CITY           SKY/WX    TMP DP  RH WIND       PRES   REMARKS
BUFFALO          N/A     60  48  64 NE5       29.78R                  
FAITH            N/A     58  47  66 CALM      29.81S                  
MOBRIDGE       PTCLDY    60  51  72 N5        29.76S                  
$$
 
SDZ012>016-024>037-041>051-057-063-072>074-280400-
SOUTHWEST AND SOUTH CENTRAL SOUTH DAKOTA
  
CITY           SKY/WX    TMP DP  RH WIND       PRES   REMARKS
RAPID CTY ARPT CLOUDY    56  48  74 W5        29.83F                  
PIERRE         CLOUDY    57  52  83 N7        29.78R                  
CUSTER         CLOUDY    46  42  86 SW3       29.91R                  
ELLSWORTH AFB  CLOUDY    58  49  71 SW3       29.83S                  
PHILIP         CLEAR     52  49  89 SW3       29.82R                  
PINE RIDGE     MOCLDY    55  47  74 CALM      29.85R                  
WINNER         FAIR      62  53  72 NE5       29.80R                  
$$
 
SDZ004>011-016>023-039-040-280400-
NORTHEAST SOUTH DAKOTA
  
CITY           SKY/WX    TMP DP  RH WIND       PRES   REMARKS
ABERDEEN       CLOUDY    63  60  90 NE10      29.77R                  
WATERTOWN      CLEAR     59  54  83 N5        29.78R                  
BROOKINGS      PTCLDY    63  56  78 N9        29.76R                  
SISSETON         N/A     59  56  89 N5        29.77R                  
$$
 
SDZ017-020-022-023-036>040-048>070-280400-
SOUTHEAST SOUTH DAKOTA
  
CITY           SKY/WX    TMP DP  RH WIND       PRES   REMARKS
SIOUX FALLS    CLOUDY    64  57  78 N6        29.74R                  
HURON          CLOUDY    61  58  90 N7        29.77R                  
CHAMBERLAIN    MOCLDY    64  58  81 N3        29.78R                  
MITCHELL       MOCLDY    66  60  81 NW7       29.76R                  
YANKTON        CLOUDY    66  59  77 N7        29.71R                  
$$
 
ABBREVIATIONS USED IN REMARKS
   TC - TEMPERATURE IN CELSIUS
  WCI - WIND CHILL INDEX
   HX - HEAT INDEX
  VSB - VISIBILITY

  

Return to Home page


Western Regional Climate Center, wrcc@dri.edu